Regional Weather Roundup
Issued by NWS State College, PA

Home | Current Version | Previous Version | Graphics & Text | Print | Product List | Glossary Off
Versions: 1 2 3 4 5 6 7 8 9 10 11 12 13 14 15 16 17 18 19 20 21 22 23 24 25 26 27 28 29 30 31 32 33 34 35 36 37 38 39 40 41 42 43 44 45 46 47 48 49 50

000
ASUS41 KCTP 261210
RWRCTP

REGIONAL WEATHER ROUNDUP
NATIONAL WEATHER SERVICE STATE COLLEGE PA
700 AM EST SUN FEB 26 2017

Note: "fair" indicates few or no clouds below 12,000 feet with no
significant weather and/or obstructions to visibility.

* = STATION THAT DOES NOT REPORT PRECIPITATION /E.G. RAIN...SNOW...ETC/
    THUNDER OR FOG.

PAZ002>004-007>009-013>016-020>023-029>032-261300-
WESTERN PENNSYLVANIA

CITY           SKY/WX    TMP DP  RH WIND       PRES   REMARKS
ERIE           LGT SNOW  27  18  69 W17G23    30.04R WCI  14
MEADVILLE      CLOUDY    22  15  75 W8G17     30.01R WCI  12
FRANKLIN*      CLOUDY    21  14  73 W13       30.02R WCI   9
NEW CASTLE     CLOUDY    25  15  66 W10       30.07R WCI  15
BEAVER COUNTY  NOT AVBL
BUTLER*        MOCLDY    27  16  63 W8G17     30.05R
PITTSBURGH INT FLURRIES  27  21  78 W8        30.05R
PITTSBURGH     FLURRIES  27  17  66 W9        30.04R
INDIANA*       CLOUDY    25  19  80 W12       30.04R HAZE    WCI  14
LATROBE        CLOUDY    27  18  69 W9        30.05R
WASHINGTON CO* CLOUDY    27  18  69 W8        30.08R
$$

PAZ004>006-010>012-017>019-024>028-033>037-041-042-045-046-049>053-261300-
CENTRAL PENNSYLVANIA

CITY           SKY/WX    TMP DP  RH WIND       PRES   REMARKS
BRADFORD       FLURRIES  21  15  78 W18G25    29.92R WCI   6
DUBOIS         CLOUDY    23  14  68 W13       29.95R WCI  11
CLEARFIELD       N/A    N/A N/A N/A MISG      29.98R
JOHNSTOWN      FLURRIES  22  17  81 W16G22    29.94R WCI   8
ALTOONA        CLOUDY    27  15  61 W15       30.00R
STATE COLLEGE  MOCLDY    27  12  54 W9G18     29.98R
WILLIAMSPORT   FLURRIES  32  18  56 W12       29.98R
SELINSGROVE    CLOUDY    31  14  49 NW14      30.02R
FT INDIANTOWN  CLOUDY    31  15  50 W14G20    30.00R
CAPITAL CITY   CLOUDY    34  12  40 NW15G23   30.02R
HARRISBURG     MOCLDY    33  16  49 NW17G26   30.02R
YORK           CLOUDY    32  17  54 W13G23    30.01R
$$

PAZ038>040-043-044-047-048-054-055-060>062-067>071-261300-
EASTERN PENNSYLVANIA

CITY           SKY/WX    TMP DP  RH WIND       PRES   REMARKS
SCRANTON       CLOUDY    31  17  56 NW14G23   29.92R
MOUNT POCONO   CLOUDY    26  17  68 W14G25    29.84R WCI  14
ALLENTOWN      CLOUDY    35  16  45 NW13G23   29.95R
QUAKERTOWN*    CLOUDY    32  19  59 NW8       29.95R
READING        CLOUDY    34  19  54 W15       29.97R
LANCASTER      CLOUDY    33  19  56 W17G24    29.99R
COATESVILLE    CLOUDY    32  18  55 NW18G26   29.98R
POTTSTOWN      CLOUDY    33  18  53 W14G22    29.98R
BLUE BELL      CLOUDY    34  19  55 W10       29.95R
DOYLESTOWN     CLOUDY    35  21  56 NW13G23   29.93R
WILLOW GROVE   NOT AVBL
NORTH PHILA    CLOUDY    37  19  48 W16G25    29.97R
PHILADELPHIA   MOCLDY    37  17  44 NW20      29.98R
$$



USA.gov is the U.S. government's official web portal to all federal, state and local government web resources and services.